Total_Precipitation_Accumulation
0.71 0.65 0.59 0.59 0.58 0.51 0.43 0.41 0.33 0.30 0.26 0.23 0.19 0.16 0.14 0.13 0.12 0.13 0.13 0.13 0.15 0.19 0.28 0.35 0.40 0.43 0.46 0.50 0.54 0.55 0.52 0.50 0.48 0.47 0.46 0.46 0.45 0.46 0.46 0.46 0.46 0.46 0.47
0.85 0.73 0.66 0.63 0.60 0.55 0.50 0.46 0.39 0.36 0.33 0.29 0.23 0.18 0.15 0.14 0.14 0.14 0.13 0.14 0.15 0.14 0.20 0.29 0.38 0.46 0.53 0.61 0.69 0.72 0.68 0.64 0.60 0.58 0.58 0.57 0.55 0.53 0.53 0.55 0.53 0.54 0.55
1.07 0.94 0.81 0.70 0.61 0.58 0.58 0.58 0.55 0.49 0.42 0.36 0.28 0.23 0.20 0.17 0.16 0.15 0.14 0.14 0.14 0.14 0.16 0.22 0.31 0.40 0.48 0.59 0.73 0.81 0.82 0.81 0.79 0.75 0.71 0.68 0.68 0.68 0.67 0.67 0.68 0.70 0.73
1.17 1.11 0.97 0.83 0.74 0.71 0.69 0.67 0.64 0.59 0.51 0.43 0.37 0.33 0.29 0.24 0.19 0.19 0.17 0.15 0.14 0.13 0.13 0.18 0.22 0.28 0.37 0.50 0.65 0.81 0.85 0.84 0.83 0.80 0.76 0.75 0.73 0.74 0.76 0.78 0.80 0.84 0.90
1.22 1.19 1.10 0.97 0.93 0.87 0.77 0.71 0.68 0.63 0.59 0.55 0.50 0.43 0.38 0.33 0.29 0.28 0.26 0.23 0.20 0.18 0.16 0.17 0.19 0.22 0.27 0.36 0.50 0.70 0.84 0.87 0.87 0.88 0.88 0.85 0.82 0.83 0.84 0.87 0.92 0.98 1.08
1.30 1.27 1.23 1.16 1.10 1.08 0.99 0.86 0.77 0.72 0.66 0.60 0.58 0.55 0.50 0.44 0.38 0.36 0.32 0.29 0.27 0.24 0.23 0.23 0.23 0.21 0.22 0.28 0.36 0.49 0.68 0.82 0.87 0.88 0.90 0.93 0.92 0.92 0.95 1.01 1.10 1.19 1.32
1.42 1.34 1.23 1.26 1.26 1.21 1.15 1.09 1.03 0.95 0.88 0.84 0.82 0.72 0.59 0.53 0.48 0.41 0.39 0.37 0.33 0.31 0.28 0.28 0.28 0.27 0.26 0.27 0.31 0.39 0.50 0.67 0.88 0.96 0.97 0.96 0.98 1.05 1.14 1.22 1.32 1.43 1.52
1.49 1.45 1.34 1.23 1.27 1.30 1.22 1.19 1.19 1.19 1.14 1.10 1.09 1.05 0.88 0.70 0.54 0.44 0.43 0.42 0.41 0.42 0.41 0.38 0.37 0.36 0.34 0.32 0.31 0.35 0.41 0.50 0.68 0.93 1.07 1.11 1.13 1.19 1.33 1.51 1.63 1.72 1.81
1.72 1.58 1.56 1.47 1.34 1.35 1.29 1.19 1.12 1.13 1.16 1.18 1.16 1.23 1.13 0.87 0.66 0.53 0.45 0.41 0.41 0.43 0.43 0.43 0.41 0.40 0.38 0.36 0.33 0.34 0.38 0.43 0.54 0.78 1.07 1.27 1.36 1.48 1.64 1.82 2.02 2.17 2.22
2.01 1.93 1.80 1.72 1.59 1.48 1.42 1.39 1.33 1.24 1.22 1.21 1.19 1.11 1.05 0.93 0.88 0.72 0.53 0.46 0.43 0.42 0.44 0.43 0.39 0.40 0.42 0.44 0.44 0.45 0.48 0.51 0.60 0.76 1.03 1.31 1.55 1.78 2.02 2.20 2.33 2.46 2.50
2.07 2.02 1.96 1.89 1.76 1.65 1.61 1.61 1.55 1.49 1.44 1.35 1.27 1.18 1.13 1.00 0.91 0.91 0.71 0.52 0.51 0.50 0.51 0.51 0.49 0.46 0.47 0.51 0.54 0.59 0.64 0.65 0.73 0.87 1.13 1.43 1.80 2.13 2.42 2.61 2.68 2.63 2.56
2.23 2.06 1.97 1.93 1.89 1.82 1.76 1.75 1.76 1.68 1.58 1.51 1.45 1.35 1.32 1.25 1.07 1.04 0.96 0.74 0.67 0.61 0.61 0.61 0.63 0.63 0.61 0.62 0.64 0.73 0.74 0.75 0.81 0.94 1.22 1.53 1.75 1.96 2.18 2.44 2.63 2.71 2.73
2.19 2.13 2.02 1.98 1.97 1.87 1.82 1.81 1.78 1.71 1.66 1.59 1.57 1.52 1.43 1.34 1.26 1.28 1.30 1.12 0.96 0.79 0.74 0.71 0.69 0.69 0.71 0.73 0.74 0.83 0.80 0.85 0.88 0.93 1.10 1.42 1.57 1.60 1.65 1.82 2.12 2.39 2.58
2.13 2.15 2.14 2.01 1.97 1.93 1.83 1.78 1.73 1.65 1.61 1.58 1.53 1.54 1.50 1.42 1.41 1.44 1.49 1.54 1.42 1.13 0.94 0.83 0.78 0.83 0.86 0.87 0.88 0.92 0.78 0.83 0.83 0.87 0.94 1.09 1.17 1.15 1.19 1.32 1.53 1.77 1.99
1.97 1.99 2.02 1.92 1.84 1.81 1.77 1.72 1.67 1.58 1.53 1.48 1.43 1.43 1.42 1.37 1.38 1.40 1.47 1.62 1.79 1.62 1.21 0.92 0.86 0.87 0.92 0.93 0.98 0.92 0.80 0.86 0.87 0.85 0.85 0.86 0.89 0.94 0.97 1.05 1.18 1.31 1.47
1.60 1.68 1.73 1.73 1.67 1.63 1.61 1.58 1.53 1.49 1.48 1.40 1.34 1.33 1.30 1.25 1.29 1.35 1.42 1.49 1.65 1.77 1.49 1.01 0.85 0.80 0.85 0.86 0.91 0.84 0.76 0.86 0.82 0.77 0.74 0.75 0.79 0.85 0.90 0.95 0.99 1.07 1.16
1.25 1.31 1.32 1.35 1.39 1.41 1.42 1.41 1.38 1.37 1.38 1.34 1.31 1.32 1.30 1.25 1.26 1.26 1.29 1.34 1.40 1.53 1.52 1.09 0.90 0.86 0.86 0.84 0.84 0.80 0.73 0.72 0.69 0.76 0.72 0.72 0.74 0.80 0.87 0.90 0.93 0.96 1.01
1.08 1.08 1.09 1.08 1.08 1.10 1.14 1.17 1.16 1.18 1.21 1.19 1.19 1.22 1.23 1.24 1.26 1.23 1.22 1.21 1.19 1.19 1.29 1.13 0.86 0.81 0.80 0.79 0.84 0.86 0.80 0.73 0.66 0.73 0.72 0.70 0.72 0.74 0.79 0.87 0.92 0.96 0.99
0.98 0.94 0.94 0.94 0.93 0.93 0.94 0.99 1.05 1.07 1.09 1.08 1.08 1.11 1.11 1.16 1.16 1.10 1.08 1.07 1.05 1.07 1.14 1.16 0.94 0.80 0.78 0.78 0.85 0.87 0.84 0.81 0.76 0.79 0.83 0.80 0.81 0.80 0.82 0.88 0.95 1.00 1.03
1.01 0.91 0.86 0.85 0.86 0.88 0.90 0.92 1.00 1.06 1.07 1.07 1.08 1.08 1.05 1.02 0.98 0.95 0.96 0.99 1.07 1.16 1.18 1.22 1.10 0.92 0.85 0.82 0.90 0.90 0.89 0.84 0.85 0.84 0.94 0.97 0.96 0.93 0.88 0.90 0.95 1.01 1.05
0.98 0.96 0.90 0.87 0.85 0.85 0.89 0.94 0.97 1.02 1.04 1.05 1.03 1.00 0.98 0.98 0.95 0.92 0.93 0.96 1.06 1.22 1.32 1.37 1.29 1.13 1.00 0.93 0.91 0.89 0.98 1.00 1.00 0.94 0.94 0.96 0.97 0.98 0.97 0.97 0.99 1.00 1.06
0.91 0.97 1.00 0.98 0.93 0.91 1.05 1.04 0.98 0.98 1.01 1.01 0.99 0.94 0.91 0.95 0.93 0.93 0.94 1.00 1.15 1.32 1.47 1.52 1.46 1.29 1.03 0.90 0.92 1.05 1.21 1.39 1.34 0.98 0.97 1.01 0.97 1.05 1.01 0.98 1.11 1.15 1.14
0.98 1.00 1.05 1.08 1.06 1.09 1.13 1.01 0.99 0.93 0.92 0.93 0.91 0.90 0.86 0.83 0.88 0.82 0.88 1.00 1.08 1.20 1.28 1.30 1.28 1.07 0.94 0.90 1.12 1.39 1.43 1.47 1.28 0.99 1.14 1.28 1.13 1.10 1.02 1.05 1.22 1.16 1.13
0.99 1.03 1.06 1.06 1.03 1.03 1.04 0.93 0.91 0.85 0.85 0.85 0.84 0.82 0.85 0.85 0.84 0.90 0.96 1.02 0.92 0.87 0.90 0.91 0.94 0.93 0.95 1.05 1.33 1.66 1.78 1.78 1.54 1.31 1.31 1.43 1.18 1.07 1.02 1.06 1.21 1.15 1.06
0.96 0.93 0.93 0.95 0.94 0.95 0.92 0.84 0.82 0.77 0.79 0.76 0.73 0.73 0.76 0.78 0.93 1.10 1.14 1.14 0.96 0.78 0.80 0.91 1.02 1.06 1.12 1.21 1.33 1.66 1.92 2.05 1.79 1.34 1.19 1.29 1.19 1.13 1.13 1.09 1.11 1.17 1.10
0.90 0.85 0.81 0.79 0.77 0.79 0.82 0.77 0.75 0.72 0.76 0.73 0.70 0.69 0.77 0.79 0.93 1.09 1.05 1.10 1.06 0.88 0.86 0.89 0.94 0.98 0.96 1.04 1.26 1.42 1.90 2.42 2.16 1.64 1.12 1.25 1.28 1.38 1.60 1.20 1.04 1.07 1.10